Weather in Gornyy Zerentuy

Russia / Zabaykalsky Krai     51°12′47″N   119°31′15″E
temp.,
°C
wind,
m/s
gust,
m/s
humid.,
%
clouds,
%
prec.,
mm/h
press.,
hPa
HPBL,
m
17 may, tue
tue1700:00+8n3270100 0.5 100128
03:00+5n33845 0.7 100349
06:00+4n24855 0.0 100685
09:00+10ene33485 0.0 1006885
12:00+14nne263298 0.0 10052566
15:00+18n4820100 0.0 10033271
18:00+15n442964 0.0 1005923
21:00+12s223793 0.0 100511
18 may, wed
wed1800:00+9sw224127 0.0 100610
03:00+8ssw323999 0.0 100622
06:00+7ssw1144100 0.0 100610
09:00+15ssw2234100 0.0 1005396
12:00+20ssw342999 0.0 10031552
15:00+16wnw5650100 0.6 1004628
18:00+12wnw1272100 1.8 1005218
21:00+10nw118199 1.8 100710
19 may, thu
thu1900:00+9wnw11825 0.0 100810
03:00+8wnw11793 0.0 100910
06:00+8wnw1173100 0.0 101010
09:00+15wnw234568 0.0 1009409
12:00+22wnw572563 0.0 10072601
15:00+24wnw682078 0.0 10053115
18:00+25wnw792269 0.0 10033285
21:00+18wsw4113598 0.0 1002178
20 may, fri
fri2000:00+13wnw2272100 0.4 100515
03:00+11nw11803 0.5 100410
06:00+10w22790 0.0 100528
09:00+17nw711360 0.0 10051669
12:00+20nw812225 0.0 10033117
15:00+22nnw81216100 0.0 10014000
18:00+22nnw7131617 0.0 10003702
21:00+13n354766 0.4 100375
21 may, sat
sat2100:00+10nnw335138 0.0 100622
03:00+9nnw33550 0.0 100823
06:00+8nnw33615 0.0 101051
09:00+14nne67475 0.0 10101106
12:00+19n463047 0.0 10102145
15:00+21nne452199 0.0 10082504
18:00+20ene442281 0.0 10071209
21:00+13ese113531 0.0 100811